[[{"header":{"parameterUnit":"m.s-1","parameterCategory":1,"la1":30.2991,"la2":30.254,"lo1":-89.0895,"lo2":-89.0444,"dy":0.0017,"dx":0.0017,"nx":28,"ny":28,"refTime":"2025-04-03T09:00:00:Z","depth":0,"parameterNumber":2,"parameterNumberName":"U-component_of_WINDS"},"data":[0,0,0,0,0,0,0,0,0,0,0,0,0,0,0,0,0,0,0,0,0,0,0,0,0,0,0,0,0,0,0,0,0,0,0,0,0,0,0,0,0,0,0,0,0,0,0,0,0,0,0,0,0,0,0,0,0,0,-4.9221,-4.9222,0,-4.9315,-4.9316,-4.9317,-4.9305,-4.9304,-4.9302,-4.9301,-4.9396,-4.9399,-4.9403,0,0,0,0,0,0,0,0,0,0,0,0,0,-4.903,-4.9034,-4.9221,-4.9222,-4.9224,-4.9315,-4.9316,-4.9318,-4.9306,-4.9304,-4.9302,-4.93,-4.9394,-4.9399,-4.9404,0,0,0,0,0,0,0,0,0,0,0,0,0,-4.9117,-4.9035,-4.9221,-4.9229,-4.923,-4.9315,-4.9316,-4.9318,-4.9306,-4.9304,-4.9301,-4.9299,-4.9393,-4.9399,-4.9404,-4.9487,0,0,-4.9423,-4.9425,0,0,0,0,0,0,0,0,-4.9112,-4.9124,-4.9226,-4.9228,-4.923,-4.9296,-4.9284,-4.9375,-4.9307,-4.9277,-4.9301,-4.9298,-4.9364,-4.9372,-4.9395,-4.9491,-4.9495,-4.9423,-4.9427,-4.9429,-4.9431,0,0,0,0,0,0,0,-4.9106,-4.912,-4.9258,-4.9228,-4.923,-4.9227,-4.9237,-4.9301,-4.9332,-4.928,-4.9279,-4.929,-4.9365,-4.9389,-4.9397,-4.9497,-4.9423,-4.9428,-4.9432,-4.9434,-4.9665,-4.9668,0,0,0,0,0,0,-4.9099,-4.9115,-4.9255,-4.9261,-4.9164,-4.9232,-4.9243,-4.9277,-4.9332,-4.9338,-4.9292,-4.9289,-4.938,-4.939,-4.9401,-4.95,-4.9429,-4.9435,-4.9438,-4.9663,-4.9666,-4.9669,0,0,0,0,0,0,-4.9095,-4.9111,-4.9252,-4.9188,-4.9206,-4.9238,-4.9276,-4.928,-4.9305,-4.9341,-4.9347,-4.9311,-4.9379,-4.9392,-4.9466,-4.9503,-4.9437,-4.9443,-4.966,-4.9664,-4.9667,-4.97,0,0,0,0,0,0,-4.9089,-4.911,-4.9142,-4.9189,-4.9209,-4.9315,-4.9279,-4.9284,-4.9315,-4.9313,-4.9361,-4.9367,-4.9378,-4.9457,-4.9471,-4.951,-4.9447,-4.9656,-4.9661,-4.9666,-4.9695,-4.9704,-4.9712,0,0,0,0,0,-4.9082,-4.9147,-4.9143,-4.916,-4.925,-4.9318,-4.9329,-4.9342,-4.9318,-4.935,-4.9374,-4.9365,-4.9497,-4.9464,-4.9481,-4.9522,-4.9654,-4.966,-4.9666,-4.9692,-4.9702,-4.9711,0,0,0,0,0,0,-4.9102,-4.9153,-4.915,-4.9232,-4.927,-4.9315,-4.9356,-4.9353,-4.9398,-4.9394,-4.9407,-4.9418,-4.9492,-4.9515,-4.9477,-4.9604,-4.9572,-4.9582,-4.9586,-4.9597,-4.9605,-4.9597,-4.9452,0,0,0,0,0,-4.9117,-4.9168,-4.9209,-4.9277,-4.9297,-4.9323,-4.9353,-4.936,-4.94,-4.9416,-4.9445,-4.9485,-4.9535,-4.9567,-4.9616,-4.9699,-4.9709,-4.9736,-4.9744,-4.975,-4.9757,-4.9802,-4.9814,-4.9688,-4.9688,-4.9687,0,0,-4.9146,-4.918,-4.9211,-4.9282,-4.9313,-4.9365,-4.9337,-4.9394,-4.9432,-4.9425,-4.9495,-4.9519,-4.9563,-4.9642,-4.9678,-4.9663,-4.9795,-4.9758,-4.9763,-4.9766,-4.981,-4.9822,-4.9832,-4.9692,-4.9691,-4.969,0,0,-4.9225,-4.9257,-4.9317,-4.9348,-4.9396,-4.9413,-4.9427,-4.9473,-4.9488,-4.956,-4.9555,-4.9602,-4.9688,-4.972,-4.9747,-4.984,-4.9833,-4.9856,-4.9898,-4.9941,-4.9951,-4.996,-4.9992,-5.0003,-4.9863,-4.9863,-4.9864,0,-4.9255,-4.9334,-4.9348,-4.9405,-4.9436,-4.9433,-4.9493,-4.9523,-4.9584,-4.9605,-4.9588,-4.9696,-4.9726,-4.9812,-4.9834,-4.9857,-4.9874,-4.9849,-4.9949,-4.9958,-4.9966,-4.9997,-5.0009,-4.9866,-4.9865,-4.9865,-4.9865,0,-4.9368,-4.9423,-4.9465,-4.9524,-4.956,-4.9619,-4.9641,-4.9676,-4.968,-4.9699,-4.9772,-4.9808,-4.9863,-4.9884,-4.9889,-4.9971,-4.996,-4.9946,-4.9913,-4.998,-5.0009,-5.0021,-4.9869,-4.9868,-4.9867,-4.9867,0,0,-4.9461,-4.9527,-4.9543,-4.9569,-4.9622,-4.9664,-4.9722,-4.9777,-4.9806,-4.9849,-4.9897,-4.9971,-4.9958,-4.999,-4.9998,-5.0036,-5.0106,-5.0017,-5.0019,-5.0031,-5.0197,-5.0206,-5.0219,-5.0103,-5.0105,-5.0107,-5.0193,0,-4.9544,-4.9647,-4.9662,-4.9753,-4.9803,-4.9802,-4.9852,-4.989,-4.991,-4.9955,-4.9977,-5.0028,-5.0008,-5.0027,-5.0066,-5.0089,-5.0139,-5.0084,-5.0147,-5.0149,-5.0133,-5.0234,-5.0244,-5.0323,-5.0204,-5.0206,-5.0208,0,-4.9655,-4.97,-4.9796,-4.9842,-4.9863,-4.9909,-4.996,-5.0003,-5.0046,-5.0058,-5.0093,-5.0097,-5.0156,-5.0124,-5.0206,-5.0168,-5.0195,-5.0211,-5.0214,-5.0219,-5.0181,-5.024,-5.0349,-5.036,-5.0226,-5.0224,-5.0223,0,-4.9711,-4.9796,-4.9864,-4.9887,-4.9943,-4.9974,-4.9999,-5.0039,-5.0071,-5.0116,-5.0137,-5.0188,-5.0216,-5.0255,-5.0272,-5.0247,-5.0353,-5.0322,-5.0364,-5.0363,-5.0384,-5.0382,-5.0497,-5.0405,-5.0405,-5.0405,-5.0404,0,-4.9801,-4.9859,-4.989,-4.9932,-4.9997,-5.0014,-5.0078,-5.0101,-5.0137,-5.0183,-5.0186,-5.0229,-5.025,-5.0296,-5.031,-5.0375,-5.0388,-5.0399,-5.0401,-5.0397,-5.0396,-5.0414,-5.0408,-5.0408,-5.0407,-5.0407,-5.0406,0,-4.9873,-4.9897,-4.9971,-5.0017,-5.0031,-5.0076,-5.0116,-5.0156,-5.0176,-5.0235,-5.0249,-5.028,-5.0335,-5.0356,-5.0423,-5.0433,-5.0507,-5.0507,-5.0493,-5.0493,-5.0533,-5.0528,-5.0661,-5.0679,-5.0577,-5.0578,-5.0579,0,-4.9928,-4.9973,-5.0025,-5.0056,-5.0081,-5.0132,-5.0164,-5.0183,-5.0217,-5.0269,-5.0303,-5.0357,-5.0402,-5.0489,-5.0517,-5.0568,-5.0567,-5.0611,-5.0575,-5.0569,-5.0566,-5.0562,-5.0566,-5.0617,-5.0618,-5.0618,-5.0619,0,-5.0023,-5.0033,-5.008,-5.0131,-5.017,-5.0212,-5.0252,-5.0277,-5.0302,-5.034,-5.0396,-5.043,-5.0499,-5.0552,-5.0605,-5.063,-5.0628,-5.0631,-5.0643,-5.0638,-5.0627,-5.0632,-5.0509,-5.0627,-5.0626,-5.0625,-5.0625,-5.0625,-5.0088,-5.0127,-5.0169,-5.0222,-5.0254,-5.0292,-5.0332,-5.0357,-5.0404,-5.0461,-5.047,-5.0529,-5.0571,-5.0641,-5.0669,-5.0715,-5.0704,-5.0722,-5.0726,-5.0729,-5.0731,-5.0622,-5.0725,-5.0725,-5.0725,-5.0725,-5.0725,0,-5.0181,-5.0208,-5.0257,-5.0313,-5.0354,-5.035,-5.0395,-5.0429,-5.0482,-5.0521,-5.0565,-5.0629,-5.0681,-5.0714,-5.0767,-5.0798,-5.0798,-5.0811,-5.0808,-5.0813,-5.0739,-5.0723,-5.0809,-5.0809,-5.0809,-5.0809,-5.0809,-5.0809,-5.0234,-5.0301,-5.0315,-5.0398,-5.0425,-5.0483,-5.0509,-5.0543,-5.0574,-5.0646,-5.069,-5.0711,-5.0748,-5.0803,-5.0851,-5.0859,-5.0877,-5.0891,-5.0898,-5.0827,-5.0818,-5.081,-5.0794,-5.0895,-5.0895,-5.0968,-5.0968,-5.0969]},{"header":{"parameterUnit":"m.s-1","parameterCategory":1,"la1":30.2991,"la2":30.254,"lo1":-89.0895,"lo2":-89.0444,"dy":0.0017,"dx":0.0017,"nx":28,"ny":28,"refTime":"2025-04-03T09:00:00:Z","depth":0,"parameterNumber":3,"parameterNumberName":"V-component_of_WINDS"},"data":[0,0,0,0,0,0,0,0,0,0,0,0,0,0,0,0,0,0,0,0,0,0,0,0,0,0,0,0,0,0,0,0,0,0,0,0,0,0,0,0,0,0,0,0,0,0,0,0,0,0,0,0,0,0,0,0,0,0,4.5684,4.5685,0,4.5823,4.5825,4.5826,4.5843,4.5842,4.5841,4.5839,4.5981,4.5986,4.5991,0,0,0,0,0,0,0,0,0,0,0,0,0,4.5433,4.5437,4.5683,4.5685,4.5687,4.5823,4.5825,4.5827,4.5844,4.5842,4.584,4.5839,4.598,4.5986,4.5992,0,0,0,0,0,0,0,0,0,0,0,0,0,4.5554,4.5439,4.5683,4.5712,4.5716,4.5823,4.5825,4.5827,4.5844,4.5842,4.584,4.5838,4.5978,4.5985,4.5992,4.608,0,0,4.6016,4.6019,0,0,0,0,0,0,0,0,4.5547,4.5563,4.5706,4.571,4.5715,4.5814,4.5789,4.5912,4.5844,4.5795,4.5839,4.5837,4.5927,4.5939,4.5969,4.6087,4.6093,4.6016,4.6021,4.6024,4.6026,0,0,0,0,0,0,0,4.5539,4.5557,4.5739,4.5708,4.5713,4.5718,4.5733,4.5812,4.5871,4.5799,4.5801,4.5817,4.5929,4.5962,4.5973,4.6095,4.6016,4.6023,4.6027,4.603,4.6295,4.6298,0,0,0,0,0,0,4.5525,4.555,4.5734,4.5743,4.5624,4.5724,4.5741,4.5784,4.587,4.5881,4.5819,4.5818,4.595,4.5964,4.5978,4.6089,4.6024,4.6031,4.6036,4.6293,4.6296,4.6299,0,0,0,0,0,0,4.5519,4.5541,4.5729,4.5647,4.5671,4.5731,4.5779,4.5788,4.5821,4.5885,4.5895,4.5842,4.5949,4.5967,4.6056,4.6094,4.6035,4.6041,4.629,4.6294,4.6297,4.631,0,0,0,0,0,0,4.5512,4.5539,4.5572,4.5648,4.5676,4.5804,4.5781,4.5792,4.5834,4.5834,4.5909,4.592,4.5949,4.6044,4.6063,4.6104,4.6047,4.6287,4.6292,4.6296,4.6307,4.6314,4.632,0,0,0,0,0,4.5503,4.5569,4.5574,4.5596,4.5719,4.5806,4.5822,4.5854,4.5837,4.5872,4.5913,4.5917,4.6087,4.6053,4.6075,4.6118,4.6285,4.629,4.6296,4.6304,4.6313,4.632,0,0,0,0,0,0,4.5496,4.558,4.5586,4.5678,4.5735,4.5808,4.5853,4.5862,4.5925,4.5922,4.5959,4.5976,4.6064,4.6099,4.606,4.6209,4.6184,4.6194,4.6183,4.6192,4.6199,4.6189,4.6054,0,0,0,0,0,4.5505,4.5569,4.5639,4.5714,4.5742,4.5793,4.5832,4.5852,4.5912,4.5936,4.5984,4.6042,4.6109,4.6152,4.6217,4.6312,4.633,4.6353,4.6359,4.6364,4.6373,4.643,4.6441,4.6317,4.6317,4.6317,0,0,4.5525,4.5579,4.5616,4.5714,4.576,4.5826,4.5813,4.5882,4.5932,4.5947,4.6034,4.6072,4.6139,4.6232,4.6275,4.6265,4.6412,4.6372,4.6375,4.6382,4.6437,4.6448,4.6459,4.6321,4.632,4.632,0,0,4.5595,4.5641,4.571,4.5758,4.5829,4.5863,4.5879,4.5952,4.5978,4.6067,4.608,4.614,4.6253,4.6302,4.6341,4.6434,4.6441,4.6454,4.649,4.6544,4.6554,4.6563,4.6599,4.6611,4.6462,4.6462,4.6462,0,4.5611,4.5711,4.5745,4.5815,4.5859,4.5877,4.5948,4.5992,4.608,4.6111,4.6097,4.6242,4.6289,4.6395,4.6418,4.6448,4.647,4.6446,4.655,4.6559,4.6568,4.6603,4.6616,4.6463,4.6463,4.6463,4.6463,0,4.5728,4.5797,4.5845,4.5932,4.598,4.6051,4.6097,4.6142,4.6159,4.6195,4.6286,4.6343,4.6421,4.6447,4.6463,4.6557,4.6549,4.6542,4.6518,4.6581,4.6614,4.6627,4.6465,4.6465,4.6464,4.6464,0,0,4.5797,4.5903,4.592,4.5962,4.6042,4.6097,4.6169,4.6247,4.6287,4.6347,4.641,4.6507,4.6503,4.6548,4.657,4.6618,4.6691,4.6606,4.6608,4.6622,4.6801,4.6807,4.6822,4.6696,4.6698,4.67,4.6797,0,4.5878,4.6008,4.6042,4.6153,4.622,4.6238,4.6302,4.6359,4.6395,4.6457,4.6496,4.6565,4.6553,4.6581,4.6628,4.6672,4.6728,4.6665,4.6756,4.6759,4.6741,4.6839,4.6845,4.6933,4.6809,4.6812,4.6813,0,4.5991,4.6056,4.6174,4.625,4.6279,4.6335,4.6411,4.6469,4.6535,4.6558,4.661,4.6628,4.6706,4.6677,4.6786,4.6742,4.6782,4.6809,4.6813,4.6825,4.6791,4.6855,4.6961,4.6976,4.6833,4.6832,4.683,0,4.6033,4.615,4.6236,4.627,4.636,4.64,4.6439,4.6503,4.6549,4.6615,4.6645,4.6718,4.6759,4.6816,4.6855,4.683,4.6962,4.6935,4.6984,4.6984,4.7012,4.701,4.7129,4.7034,4.7034,4.7034,4.7033,0,4.6122,4.6194,4.6257,4.631,4.6393,4.6432,4.6512,4.6552,4.6609,4.6672,4.6691,4.675,4.6796,4.6861,4.6891,4.6979,4.6996,4.7018,4.7026,4.7018,4.7015,4.7045,4.7041,4.7037,4.7036,4.7036,4.7035,0,4.6183,4.6228,4.6324,4.6402,4.6423,4.6481,4.6548,4.6601,4.6638,4.6717,4.6738,4.6796,4.6874,4.6918,4.7015,4.7036,4.7134,4.7137,4.7112,4.7116,4.7164,4.716,4.7308,4.7331,4.7218,4.7219,4.722,0,4.6237,4.6294,4.6379,4.6422,4.6463,4.6532,4.658,4.6621,4.6669,4.6751,4.6795,4.6874,4.694,4.7064,4.7115,4.719,4.7197,4.7244,4.7209,4.72,4.7201,4.7199,4.7206,4.725,4.7251,4.7252,4.7253,0,4.6331,4.6351,4.6419,4.6496,4.6552,4.6614,4.6675,4.671,4.6761,4.6815,4.6896,4.6947,4.7048,4.7128,4.7208,4.7248,4.7261,4.7264,4.728,4.7273,4.7257,4.727,4.7132,4.726,4.726,4.7259,4.7259,4.7258,4.6393,4.6445,4.6514,4.659,4.6641,4.6698,4.6754,4.6798,4.6867,4.6953,4.6972,4.7058,4.7126,4.7235,4.7278,4.7346,4.7338,4.736,4.7366,4.7372,4.7375,4.7245,4.736,4.736,4.736,4.736,4.736,0,4.649,4.6536,4.6605,4.6692,4.6752,4.6758,4.6827,4.6877,4.6953,4.7014,4.708,4.7174,4.7252,4.731,4.739,4.7434,4.7441,4.7453,4.7452,4.7462,4.7376,4.7356,4.7446,4.7446,4.7446,4.7446,4.7446,4.7446,4.6548,4.6638,4.6667,4.6783,4.6828,4.6913,4.6953,4.7007,4.7057,4.7162,4.7227,4.7265,4.7326,4.7411,4.7484,4.7499,4.7529,4.754,4.7557,4.7476,4.7467,4.7458,4.744,4.7546,4.7546,4.7637,4.7638,4.7638]}]]